Radiation Dose at Monitoring Post of Fukushima Daini Nuclear Power Station
Date,Time,MP-1(microSv/h),MP-2(microSv/h),MP-3(microSv/h),MP-4(microSv/h),MP-5(microSv/h),MP-6(microSv/h),MP-7(microSv/h),Wind Direction,Wind Velocity(m/s),Rain
2017/03/04,00:00,0.389,0.236,0.398,0.367,0.334,0.194,0.162,-,CALM,No
2017/03/04,00:10,0.390,0.236,0.398,0.366,0.334,0.195,0.163,north,0.7,No
2017/03/04,00:20,0.391,0.236,0.398,0.368,0.333,0.194,0.163,north,0.6,No
2017/03/04,00:30,0.390,0.237,0.396,0.366,0.332,0.193,0.163,north,1.0,No
2017/03/04,00:40,0.390,0.237,0.396,0.367,0.333,0.193,0.162,north-northwest,0.8,No
2017/03/04,00:50,0.391,0.237,0.399,0.366,0.331,0.195,0.162,north-northwest,0.6,No
2017/03/04,01:00,0.389,0.236,0.397,0.367,0.334,0.193,0.162,-,CALM,No
2017/03/04,01:10,0.392,0.235,0.399,0.367,0.333,0.194,0.163,north-northwest,0.8,No
2017/03/04,01:20,0.390,0.236,0.398,0.367,0.333,0.195,0.162,-,CALM,No
2017/03/04,01:30,0.389,0.237,0.398,0.366,0.332,0.195,0.162,-,CALM,No
2017/03/04,01:40,0.390,0.237,0.399,0.367,0.333,0.194,0.162,west-southwest,0.8,No
2017/03/04,01:50,0.391,0.237,0.399,0.366,0.333,0.193,0.162,west-southwest,0.8,No
2017/03/04,02:00,0.389,0.237,0.398,0.367,0.332,0.195,0.162,-,CALM,No
2017/03/04,02:10,0.391,0.236,0.398,0.367,0.332,0.194,0.162,southwest,0.6,No
2017/03/04,02:20,0.391,0.236,0.397,0.366,0.332,0.194,0.163,-,CALM,No
2017/03/04,02:30,0.390,0.237,0.399,0.366,0.332,0.194,0.163,-,CALM,No
2017/03/04,02:40,0.389,0.238,0.397,0.366,0.333,0.194,0.163,-,CALM,No
2017/03/04,02:50,0.389,0.236,0.398,0.366,0.334,0.195,0.162,-,CALM,No
2017/03/04,03:00,0.390,0.237,0.398,0.367,0.332,0.194,0.163,-,CALM,No
2017/03/04,03:10,0.390,0.237,0.400,0.367,0.334,0.194,0.162,-,CALM,No
2017/03/04,03:20,0.391,0.237,0.397,0.368,0.333,0.194,0.162,-,CALM,No
2017/03/04,03:30,0.390,0.236,0.398,0.367,0.334,0.194,0.162,-,CALM,No
2017/03/04,03:40,0.391,0.236,0.399,0.367,0.332,0.194,0.162,-,CALM,No
2017/03/04,03:50,0.389,0.237,0.398,0.367,0.332,0.195,0.162,-,CALM,No
2017/03/04,04:00,0.389,0.236,0.398,0.368,0.332,0.194,0.162,-,CALM,No
2017/03/04,04:10,0.389,0.236,0.399,0.366,0.334,0.194,0.163,south-southwest,0.8,No
2017/03/04,04:20,0.390,0.238,0.397,0.368,0.332,0.193,0.162,south-southwest,1.3,No
2017/03/04,04:30,0.390,0.235,0.399,0.366,0.332,0.195,0.163,southwest,2.3,No
2017/03/04,04:40,0.389,0.237,0.397,0.367,0.331,0.193,0.163,west,1.4,No
2017/03/04,04:50,0.390,0.236,0.398,0.367,0.332,0.194,0.162,west-southwest,1.2,No
2017/03/04,05:00,0.390,0.237,0.399,0.367,0.333,0.194,0.163,west-southwest,1.4,No
2017/03/04,05:10,0.391,0.237,0.398,0.365,0.332,0.194,0.163,west,0.8,No
2017/03/04,05:20,0.392,0.237,0.399,0.366,0.332,0.194,0.163,southwest,1.0,No
2017/03/04,05:30,0.391,0.236,0.396,0.366,0.332,0.195,0.162,south-southwest,1.6,No
2017/03/04,05:40,0.391,0.236,0.397,0.367,0.333,0.194,0.162,south,1.5,No
2017/03/04,05:50,0.388,0.237,0.398,0.366,0.333,0.194,0.162,south,1.7,No
2017/03/04,06:00,0.391,0.237,0.399,0.368,0.334,0.194,0.162,south-southwest,2.5,No
2017/03/04,06:10,0.390,0.237,0.399,0.366,0.332,0.195,0.161,south-southwest,2.4,No
2017/03/04,06:20,0.391,0.237,0.398,0.365,0.334,0.194,0.163,southwest,1.7,No
2017/03/04,06:30,0.389,0.237,0.397,0.367,0.332,0.195,0.163,southwest,0.8,No
2017/03/04,06:40,0.388,0.237,0.398,0.366,0.332,0.194,0.162,west-northwest,3.8,No
2017/03/04,06:50,0.390,0.236,0.397,0.366,0.332,0.196,0.162,northwest,3.4,No
2017/03/04,07:00,0.389,0.237,0.399,0.365,0.332,0.195,0.162,west-northwest,2.9,No
2017/03/04,07:10,0.391,0.236,0.400,0.366,0.332,0.194,0.161,northwest,2.4,No
2017/03/04,07:20,0.389,0.237,0.398,0.366,0.332,0.194,0.162,west-northwest,2.1,No
2017/03/04,07:30,0.389,0.238,0.398,0.367,0.333,0.194,0.162,west,2.3,No
2017/03/04,07:40,0.389,0.237,0.396,0.366,0.332,0.194,0.161,west-southwest,1.7,No
2017/03/04,07:50,0.391,0.238,0.397,0.366,0.335,0.194,0.162,north,1.9,No
2017/03/04,08:00,0.391,0.238,0.399,0.366,0.333,0.193,0.162,west,2.5,No
2017/03/04,08:10,0.389,0.237,0.400,0.366,0.332,0.193,0.161,west-northwest,3.7,No
2017/03/04,08:20,0.389,0.237,0.397,0.365,0.335,0.193,0.160,west,4.4,No
2017/03/04,08:30,0.390,0.236,0.397,0.365,0.334,0.194,0.161,west,3.0,No
2017/03/04,08:40,0.390,0.235,0.398,0.364,0.333,0.194,0.161,west-southwest,2.2,No
2017/03/04,08:50,0.390,0.237,0.397,0.367,0.333,0.194,0.163,southwest,5.0,No
2017/03/04,09:00,0.389,0.235,0.397,0.364,0.333,0.193,0.161,south,7.1,No
2017/03/04,09:10,0.388,0.236,0.395,0.368,0.332,0.194,0.162,south-southeast,8.3,No
2017/03/04,09:20,0.390,0.236,0.398,0.366,0.334,0.194,0.161,south-southeast,4.7,No
2017/03/04,09:30,0.388,0.236,0.400,0.366,0.334,0.193,0.162,south-southeast,4.3,No
2017/03/04,09:40,0.389,0.236,0.398,0.369,0.332,0.194,0.162,south,3.8,No
2017/03/04,09:50,0.385,0.237,0.397,0.367,0.333,0.193,0.163,south-southwest,3.0,No
2017/03/04,10:00,0.389,0.236,0.399,0.366,0.333,0.194,0.162,south,3.3,No
2017/03/04,10:10,0.386,0.237,0.399,0.364,0.332,0.193,0.163,south,4.8,No
2017/03/04,10:20,0.389,0.237,0.397,0.367,0.334,0.193,0.164,south-southwest,7.5,No
2017/03/04,10:30,0.386,0.237,0.398,0.365,0.332,0.193,0.163,south-southwest,8.1,No
2017/03/04,10:40,0.389,0.236,0.397,0.367,0.334,0.193,0.162,south-southwest,7.8,No
2017/03/04,10:50,0.387,0.236,0.397,0.364,0.333,0.194,0.163,south-southwest,10.4,No
2017/03/04,11:00,0.388,0.237,0.398,0.368,0.333,0.193,0.163,south-southwest,10.0,No
2017/03/04,11:10,0.389,0.236,0.396,0.366,0.333,0.194,0.162,south-southwest,10.7,No
2017/03/04,11:20,0.387,0.236,0.397,0.367,0.333,0.193,0.162,south,9.8,No
2017/03/04,11:30,0.389,0.237,0.396,0.366,0.332,0.193,0.162,south,9.9,No
2017/03/04,11:40,0.386,0.237,0.399,0.370,0.334,0.194,0.162,south,9.0,No
2017/03/04,11:50,0.390,0.236,0.394,0.366,0.333,0.194,0.163,south-southwest,11.5,No
2017/03/04,12:00,0.389,0.238,0.398,0.370,0.334,0.194,0.162,south,13.6,No
2017/03/04,12:10,0.390,0.236,0.395,0.367,0.332,0.194,0.163,south,14.1,No
2017/03/04,12:20,0.390,0.238,0.397,0.369,0.333,0.194,0.162,south,11.5,No
2017/03/04,12:30,0.388,0.238,0.396,0.366,0.335,0.196,0.163,south,12.2,No
2017/03/04,12:40,0.391,0.238,0.399,0.368,0.333,0.195,0.163,south-southwest,14.2,No
2017/03/04,12:50,0.388,0.238,0.396,0.368,0.334,0.194,0.163,south,13.9,No
2017/03/04,13:00,0.390,0.238,0.397,0.368,0.334,0.195,0.163,south,12.9,No
2017/03/04,13:10,0.389,0.238,0.396,0.368,0.334,0.194,0.164,south,11.9,No
2017/03/04,13:20,0.391,0.237,0.398,0.367,0.336,0.195,0.163,south,13.3,No
2017/03/04,13:30,0.389,0.237,0.397,0.369,0.333,0.195,0.163,south,14.0,No
2017/03/04,13:40,0.390,0.239,0.398,0.368,0.335,0.195,0.163,south,12.9,No
2017/03/04,13:50,0.389,0.238,0.397,0.369,0.334,0.194,0.164,south,13.5,No
2017/03/04,14:00,0.392,0.239,0.398,0.367,0.335,0.194,0.164,south,13.4,No
2017/03/04,14:10,0.390,0.236,0.396,0.370,0.334,0.195,0.163,south,12.6,No
2017/03/04,14:20,0.391,0.238,0.399,0.368,0.335,0.194,0.164,south,12.8,No
2017/03/04,14:30,0.391,0.239,0.397,0.370,0.334,0.194,0.163,south,12.7,No
2017/03/04,14:40,0.390,0.238,0.399,0.370,0.336,0.194,0.162,south,11.8,No
2017/03/04,14:50,0.391,0.238,0.397,0.370,0.334,0.195,0.164,south,11.4,No
2017/03/04,15:00,0.389,0.238,0.398,0.370,0.334,0.194,0.164,south,11.8,No
2017/03/04,15:10,0.390,0.238,0.402,0.370,0.336,0.193,0.165,south,11.6,No
2017/03/04,15:20,0.392,0.239,0.400,0.370,0.335,0.194,0.164,south-southwest,13.6,No
2017/03/04,15:30,0.389,0.239,0.399,0.370,0.336,0.195,0.164,south,12.3,No
2017/03/04,15:40,0.391,0.238,0.399,0.369,0.336,0.194,0.163,south,11.8,No
2017/03/04,15:50,0.390,0.240,0.398,0.368,0.333,0.194,0.165,south,11.2,No
2017/03/04,16:00,0.391,0.237,0.398,0.371,0.336,0.196,0.164,south-southwest,9.8,No
2017/03/04,16:10,0.391,0.237,0.398,0.367,0.333,0.194,0.164,south-southwest,4.5,No
2017/03/04,16:20,0.391,0.240,0.397,0.369,0.334,0.194,0.163,south,3.6,No
2017/03/04,16:30,0.392,0.238,0.400,0.372,0.334,0.194,0.164,south-southwest,7.3,No
2017/03/04,16:40,0.388,0.239,0.399,0.368,0.334,0.194,0.164,south,3.1,No
2017/03/04,16:50,0.389,0.239,0.398,0.370,0.336,0.195,0.164,west-northwest,3.8,No
2017/03/04,17:00,0.393,0.240,0.400,0.370,0.334,0.194,0.162,west,3.6,No
2017/03/04,17:10,0.390,0.238,0.399,0.369,0.334,0.194,0.163,southwest,4.8,No
2017/03/04,17:20,0.392,0.239,0.398,0.371,0.335,0.195,0.164,west,4.0,No
2017/03/04,17:30,0.393,0.238,0.400,0.370,0.334,0.196,0.163,west,2.0,No
2017/03/04,17:40,0.390,0.239,0.398,0.370,0.336,0.194,0.164,west-southwest,3.8,No
2017/03/04,17:50,0.391,0.238,0.398,0.371,0.336,0.195,0.163,west-southwest,3.7,No
2017/03/04,18:00,0.392,0.239,0.401,0.369,0.334,0.195,0.163,west-southwest,4.8,No
2017/03/04,18:10,0.390,0.239,0.399,0.370,0.337,0.195,0.163,west,4.1,No
2017/03/04,18:20,0.389,0.240,0.399,0.368,0.335,0.195,0.163,west,4.2,No
2017/03/04,18:30,0.391,0.239,0.399,0.370,0.334,0.194,0.164,west,4.7,No
2017/03/04,18:40,0.390,0.238,0.399,0.370,0.335,0.196,0.164,west,4.2,No
2017/03/04,18:50,0.390,0.240,0.398,0.369,0.336,0.196,0.164,west-northwest,2.2,No
2017/03/04,19:00,0.393,0.238,0.400,0.371,0.334,0.195,0.164,west-northwest,1.2,No
2017/03/04,19:10,0.390,0.238,0.398,0.370,0.335,0.195,0.163,west-northwest,2.3,No
2017/03/04,19:20,0.391,0.239,0.398,0.370,0.335,0.194,0.163,northwest,3.0,No
2017/03/04,19:30,0.392,0.239,0.400,0.370,0.334,0.194,0.163,northwest,4.4,No
2017/03/04,19:40,0.391,0.239,0.399,0.369,0.335,0.195,0.163,northwest,4.8,No
2017/03/04,19:50,0.391,0.239,0.399,0.368,0.337,0.196,0.163,west-northwest,4.8,No
2017/03/04,20:00,0.392,0.239,0.399,0.369,0.334,0.195,0.164,west-northwest,6.1,No
2017/03/04,20:10,0.391,0.238,0.401,0.369,0.334,0.195,0.163,west,7.8,No
2017/03/04,20:20,0.390,0.240,0.399,0.370,0.335,0.195,0.164,west,7.8,No
2017/03/04,20:30,0.391,0.239,0.400,0.369,0.333,0.196,0.164,west,7.7,No
2017/03/04,20:40,0.392,0.239,0.400,0.371,0.335,0.193,0.163,west,7.5,No
2017/03/04,20:50,0.391,0.239,0.400,0.368,0.335,0.194,0.163,west,6.5,No
2017/03/04,21:00,0.391,0.239,0.399,0.369,0.335,0.194,0.163,west-northwest,5.0,No
2017/03/04,21:10,0.391,0.239,0.398,0.370,0.334,0.194,0.164,west-southwest,5.8,No
2017/03/04,21:20,0.391,0.238,0.399,0.370,0.334,0.194,0.164,west,7.0,No
2017/03/04,21:30,0.390,0.240,0.399,0.369,0.337,0.195,0.164,west,7.0,No
2017/03/04,21:40,0.391,0.240,0.399,0.371,0.336,0.195,0.164,west,7.4,No
2017/03/04,21:50,0.390,0.240,0.399,0.371,0.334,0.195,0.163,west-northwest,6.4,No
2017/03/04,22:00,0.391,0.238,0.400,0.369,0.334,0.194,0.164,west-northwest,6.6,No
2017/03/04,22:10,0.391,0.240,0.399,0.369,0.336,0.194,0.164,west-northwest,7.0,No
2017/03/04,22:20,0.391,0.240,0.399,0.371,0.334,0.195,0.164,west-northwest,6.3,No
2017/03/04,22:30,0.392,0.241,0.398,0.369,0.333,0.194,0.163,west,5.3,No
2017/03/04,22:40,0.390,0.239,0.399,0.370,0.336,0.196,0.163,west,6.6,No
2017/03/04,22:50,0.392,0.239,0.400,0.370,0.336,0.195,0.163,west-northwest,8.1,No
2017/03/04,23:00,0.392,0.240,0.401,0.370,0.335,0.196,0.163,west-northwest,8.4,No
2017/03/04,23:10,0.392,0.238,0.400,0.370,0.336,0.195,0.164,west-northwest,10.6,No
2017/03/04,23:20,0.392,0.238,0.401,0.369,0.336,0.194,0.164,west-northwest,9.5,No
2017/03/04,23:30,0.390,0.239,0.399,0.370,0.335,0.193,0.163,west-northwest,9.0,No
2017/03/04,23:40,0.393,0.239,0.400,0.369,0.335,0.194,0.163,west-northwest,8.3,No
2017/03/04,23:50,0.391,0.239,0.401,0.369,0.335,0.195,0.165,west-northwest,8.1,No
